Regional Weather Roundup
Issued by NWS San Angelo, TX

Home | Current Version | Previous Version | Text Only | Print | Product List | Glossary On
Versions: 1 2 3 4 5 6 7 8 9 10 11 12 13 14 15 16 17 18 19 20 21 22 23 24 25 26 27 28 29 30 31 32 33 34 35 36 37 38 39 40 41 42 43 44 45 46 47 48 49 50
000
ASUS44 KSJT 211610
RWRSJT
WEST CENTRAL TEXAS REGIONAL WEATHER ROUNDUP
NATIONAL WEATHER SERVICE SAN ANGELO TX
1100 AM CDT THU AUG 21 2014

NOTE: "FAIR" INDICATES FEW OR NO CLOUDS BELOW 12,000 FEET WITH NO
SIGNIFICANT WEATHER AND/OR OBSTRUCTIONS TO VISIBILITY.

TXZ049-054-064>066-071>073-076>078-098-099-113-114-127-128-139-140-
154-155-168>170-211700
...LOCATIONS ACROSS WEST CENTRAL TEXAS...

CITY           SKY/WX    TMP DP  RH WIND       PRES   REMARKS
SAN ANGELO     SUNNY     86  70  58 S16G28    30.03F
ABILENE        MOSUNNY   87  70  56 S25G31    30.03S
DYESS AFB      SUNNY     86  71  60 S21G29    30.02S
JUNCTION       MOSUNNY   84  69  60 S13       30.07S
SWEETWATER     SUNNY     85  69  57 S23       30.07S
BROWNWOOD      MOSUNNY   88  68  51 S18       30.05S
COLEMAN        PTSUNNY   84  71  64 S18       30.06R
SONORA         PTSUNNY   82  70  65 S14       30.11S
OZONA          PTSUNNY   82  68  61 S18       30.09S
BRADY          SUNNY     84  70  61 S16       30.06S
$$

TEXAS PANHANDLE/OKLAHOMA PANHANDLE

CITY           SKY/WX    TMP DP  RH WIND       PRES   REMARKS
AMARILLO       MOSUNNY   81  63  54 S15       30.02S
BORGER         SUNNY     86  63  45 SW15G25   29.98S
CANADIAN       SUNNY     87  66  49 SW15G22   29.96R
DALHART        MOSUNNY   84  58  40 SW9       30.03S
DUMAS          SUNNY     83  61  47 SW10G16   30.02S
GUYMON         NOT AVBL
HEREFORD       MOSUNNY   81  67  61 S14G22    30.05R
PAMPA          SUNNY     85  59  41 SW21G29   30.01R
PERRYTON       SUNNY     87  62  43 SW22G28   29.96S
$$

SOUTHERN PANHANDLE/SOUTH PLAINS/ROLLING PLAINS

CITY           SKY/WX    TMP DP  RH WIND       PRES   REMARKS
LUBBOCK        MOSUNNY   83  65  54 S16       30.04S
SNYDER         SUNNY     82  69  65 S20G25    30.04S
CHILDRESS      MOSUNNY   89  69  51 S20G28    29.98S HAZE
SEMINOLE       SUNNY     84  61  44 S14       30.05F
$$

PERMIAN BASIN

CITY           SKY/WX    TMP DP  RH WIND       PRES   REMARKS
MIDLAND        SUNNY     84  67  56 S18       30.04S
ODESSA         SUNNY     82  66  58 SW17      30.05S
WINK           SUNNY     86  62  44 SE6       30.01S
$$

FAR WEST/SOUTHWEST MOUNTAINS/TRANS PECOS

CITY           SKY/WX    TMP DP  RH WIND       PRES   REMARKS
ALPINE         MOSUNNY   78  62  57 W9        30.21S
DRYDEN           N/A     89  68  49 SE9       30.03S
EL PASO        MOSUNNY   82  52  35 SW9       30.08S
FORT STOCKTON  SUNNY     86  62  44 SW13      30.05S
GUADALUPE PASS MOSUNNY   73  50  44 W16       30.20R
MARFA          SUNNY     75  61  60 SE10      30.21F
PECOS          SUNNY     88  60  38 S6        30.01S
$$

DALLAS/FORT WORTH METROPLEX

CITY           SKY/WX    TMP DP  RH WIND       PRES   REMARKS
DFW AIRPORT    PTSUNNY   88  72  58 S22G28    30.02S
FTW MEACHAM    PTSUNNY   89  72  56 S16G24    30.02S
DAL-EXECUTIVE  MOSUNNY   89  72  56 S9G21     30.03F
GRAND PRAIRIE  MOSUNNY   88  72  58 SE12G23   30.05S
ADDISON        NOT AVBL
MESQUITE         N/A     88  72  58 S18G24    30.05S
LANCASTER      MOSUNNY   88  71  56 SW12G22   30.05F
$$

NORTH CENTRAL TEXAS

CITY           SKY/WX    TMP DP  RH WIND       PRES   REMARKS
SHRMAN/DENISON PTSUNNY   87  72  61 S17       30.05S
GAINESVILLE    MOSUNNY   85  73  65 S20G25    30.04F
BRIDGEPORT     SUNNY     88  68  52 S13G18    30.04S
DENTON         CLOUDY    87  72  60 S18G24    30.03S
WAXAHACHIE     MOSUNNY   88  69  54 S17G23    30.05S
GRANBURY       PTSUNNY   90  71  52 S15       30.04S
$$

WESTERN NORTH TEXAS

CITY           SKY/WX    TMP DP  RH WIND       PRES   REMARKS
WICHITA FALLS  SUNNY     89  70  53 S17       29.97F
VERNON         SUNNY     91  68  47 S21G28    29.98S
BRECKENRIDGE   SUNNY     91  69  48 S15G24    30.02S HAZE
COMANCHE       SUNNY     88  69  53 SW18G26   30.04F
$$

CENTRAL AND SOUTH CENTRAL TEXAS

CITY           SKY/WX    TMP DP  RH WIND       PRES   REMARKS
AUSTIN/BERGSTM MOSUNNY   90  69  50 S16G23    30.05F
WACO           MOSUNNY   89  71  55 S20       30.05R
HILLSBORO      SUNNY     89  69  50 S22       30.05S
TEMPLE         SUNNY     90  68  48 S20       30.05R
KILLEEN-GRAY   MOSUNNY   88  70  55 S20G28    30.05S
FORT HOOD      SUNNY     91  67  44 S20G26    30.05S
GEORGETOWN     SUNNY     90  68  48 S17G26    30.07S
LAGO VISTA     FAIR      89  65  45 S14G22    30.09S
SAN MARCOS     SUNNY     90  70  51 S17G23    30.08S
NEW BRAUNFELS  SUNNY     89  69  51 S17G30    30.06R
RANDOLPH AFB   MOSUNNY   89  68  50 S16G24    30.07S
SAN ANTONIO    MOSUNNY   89  70  53 S20       30.07R
STINSON        SUNNY     89  70  53 S16G25    30.04S
PLEASANTON     NOT AVBL
LA GRANGE      SUNNY     92  73  54 S16       30.05F
GIDDINGS       MOSUNNY   89  69  52 S9G22     30.11S
$$

EAST TEXAS

CITY           SKY/WX    TMP DP  RH WIND       PRES   REMARKS
PARIS          CLOUDY    84  72  65 SW14      30.08S
CLARKSVILLE    PTSUNNY   85  74  68 S6        30.08S
TYLER          PTSUNNY   90  73  58 S15G23    30.08S
LONGVIEW       PTSUNNY   88  74  63 SW17      30.09S
PALESTINE      PTSUNNY   87  77  73 S8        30.09S
NACOGDOCHES    CLOUDY    84  77  79 W10       30.11S
$$

TEXAS HILL COUNTRY AND EDWARDS PLATEAU

CITY           SKY/WX    TMP DP  RH WIND       PRES   REMARKS
LLANO          SUNNY     90  64  43 SW14G21   30.08F
HORSESHOE BAY  FAIR      89  65  44 S9G17     30.07R
KERRVILLE      SUNNY     83  69  61 S14       30.09S
FREDERICKSBRG  SUNNY     85  64  49 S13G21    30.09S
ROCKSPRINGS    MOSUNNY   81  70  69 SE13      30.11S
HONDO          SUNNY     87  68  52 S17       30.07S
UVALDE         SUNNY     85  73  65 SE13G18   30.04S
DEL RIO        CLOUDY    84  71  65 SE14      30.01R
$$

SOUTHEAST TEXAS

CITY           SKY/WX    TMP DP  RH WIND       PRES   REMARKS
COLLEGE STN    SUNNY     89  70  53 S14       30.08R
CALDWELL       SUNNY     88  72  58 S13       30.10S
CROCKETT       PTSUNNY   90  79  70 SW9       30.12S
BRENHAM        SUNNY     91  71  52 S16       30.09R
HUNTSVILLE     MOSUNNY   88  75  65 S13G22    30.10S
CONROE         MOSUNNY   89  74  60 S10       30.10S
HOUSTON BUSH   MOSUNNY   89  74  60 S12G17    30.09S
HOUSTON HOBBY  MOSUNNY   89  74  60 S15       30.09S
PERLAND        SUNNY     90  73  57 S12G21    30.10F
WHARTON        MOSUNNY   92  71  50 S15       30.09S
$$

THE UPPER TEXAS COAST

CITY           SKY/WX    TMP DP  RH WIND       PRES   REMARKS
ORANGE         MOSUNNY   90  76  63 S13       30.11S
PORT ARTHUR    PTSUNNY   91  75  59 S14       30.10R
GALVESTON      MOSUNNY   89  78  70 S14       30.11S
ANGLETON       SUNNY     89  76  65 S15       30.09S
BAY CITY       MOSUNNY   93  76  58 S13       30.09R
$$

TEXAS COASTAL BEND, RIO GRANDE PLAINS DEEP SOUTH TEXAS

CITY           SKY/WX    TMP DP  RH WIND       PRES   REMARKS
VICTORIA       MOSUNNY   94  72  48 S23       30.07S
BEEVILLE       FAIR      91  71  51 S20G26    30.06R
ROCKPORT       MOSUNNY   88  76  67 S15G23    30.06S
PORT ARANSAS   SUNNY     86  78  77 S9        30.07R
PORT LAVACA    MOSUNNY   91  73  55 S16       30.07S
CORPUS CHRISTI MOSUNNY   90  74  59 S23       30.05S
KINGSVILLE NAS MOSUNNY   93  75  55 S25G31    30.03F
COTULLA        SUNNY     89  67  47 S13G23    30.02S
LAREDO         SUNNY     91  69  48 S20       30.02F
BROWNSVILLE    MOSUNNY   93  74  53 S24       30.05R
PORT ISABEL    MOSUNNY   93  74  53 S21G26    30.05R
HEBBRONVILLE   SUNNY     90  66  44 SE23      30.03S
MCALLEN        SUNNY     90  72  55 S20G26    30.04R
WESLACO        PTSUNNY   92  72  51 S16G23    30.04S
FALFURRIAS     MOSUNNY   96  82  64 S22G30    30.03S HX 120
EDINBURG       MOSUNNY   92  70  48 S17G26    30.04S
$$


USA.gov is the U.S. government's official web portal to all federal, state and local government web resources and services.